YD1OCG-15 Weather Reports


Display with metric or nautical units.
time (UTC)temp
F
wind
direction
speed
MPH
gust
MPH
rain 1hr
in
rain 24hr
in
rain mn
in
humidity
%
barometer
mb
20260510043724 90 345 11.0 0.0 0.00 0.00 0.00 71 1009.0
20260510040723 88 8 8.0 0.0 0.00 0.00 0.00 82 1010.0
20260510033723 88 8 8.0 0.0 0.00 0.00 0.00 72 1010.0
20260510030724 86 34 6.0 0.0 0.00 0.00 0.00 84 1011.0
20260510023723 87 34 6.0 0.0 0.00 0.00 0.00 78 1011.0
20260510020723 84 56 6.0 0.0 0.00 0.00 0.00 89 1012.0
20260510013723 84 56 6.0 0.0 0.00 0.00 0.00 84 1012.0
20260510010723 82 96 5.0 0.0 0.00 0.00 0.00 91 1012.0
20260510003724 84 96 5.0 0.0 0.00 0.00 0.00 83 1011.0
20260510000723 82 134 5.0 0.0 0.00 0.00 0.00 90 1011.0
20260509233723 82 134 5.0 0.0 0.00 0.00 0.00 90 1011.0
20260509230723 79 142 6.0 0.0 0.00 0.00 0.00 90 1011.0
20260509223723 80 142 6.0 0.0 0.00 0.00 0.00 92 1011.0
20260509220723 78 146 7.0 0.0 0.00 0.00 0.00 91 1011.0
20260509213723 79 146 7.0 0.0 0.00 0.00 0.00 92 1011.0
20260509210723 80 147 8.0 0.0 0.00 0.00 0.00 90 1010.0
20260509203723 81 147 8.0 0.0 0.00 0.00 0.00 93 1011.0
20260509200723 79 144 6.0 0.0 0.00 0.00 0.00 90 1011.0
20260509193723 80 144 6.0 0.0 0.00 0.00 0.00 92 1011.0
20260509190723 80 143 6.0 0.0 0.00 0.00 0.00 89 1011.0
20260509183723 81 143 6.0 0.0 0.00 0.00 0.00 90 1011.0
20260509180723 80 150 5.0 0.0 0.00 0.00 0.00 88 1012.0
20260509173724 80 151 5.0 0.0 0.00 0.00 0.00 88 1012.0
20260509170723 80 152 4.0 0.0 0.00 0.00 0.00 89 1012.0
20260509163723 81 152 4.0 0.0 0.00 0.00 0.00 90 1012.0
20260509160723 81 160 5.0 0.0 0.00 0.00 0.00 87 1013.0
20260509153723 81 160 5.0 0.0 0.00 0.00 0.00 92 1013.0
20260509150723 80 162 4.0 0.0 0.00 0.00 0.00 92 1013.0
20260509143723 81 162 4.0 0.0 0.00 0.00 0.00 93 1013.0
20260509140723 80 167 3.0 0.0 0.00 0.00 0.00 91 1013.0
20260509133723 81 167 3.0 0.0 0.00 0.00 0.00 91 1013.0
20260509130723 82 182 3.0 0.0 0.00 0.00 0.00 88 1013.0
20260509123723 84 182 3.0 0.0 0.00 0.00 0.00 91 1013.0
20260509120723 82 198 1.0 0.0 0.00 0.00 0.00 90 1012.0
20260509113723 82 270 0.0 0.0 0.00 0.00 0.00 90 1012.0
20260509110723 81 329 3.0 0.0 0.00 0.00 0.00 85 1011.0
20260509103723 81 329 3.0 0.0 0.00 0.00 0.00 87 1011.0
20260509100723 83 325 5.0 0.0 0.00 0.00 0.00 84 1010.0
20260509093723 83 325 5.0 0.0 0.00 0.00 0.00 88 1010.0
20260509083723 84 323 7.0 0.0 0.00 0.00 0.00 82 1009.0
20260509080723 85 334 12.0 0.0 0.00 0.00 0.00 75 1009.0
20260509073724 85 334 12.0 0.0 0.00 0.00 0.00 78 1009.0
20260509070723 85 338 15.0 0.0 0.00 0.00 0.00 78 1009.0
20260509063723 85 338 15.0 0.0 0.00 0.00 0.00 75 1009.0
20260509060723 83 341 13.0 0.0 0.00 0.00 0.00 73 1010.0
20260509053724 83 348 13.0 0.0 0.00 0.00 0.00 73 1010.0
20260509050723 84 7 8.0 0.0 0.00 0.00 0.00 79 1011.0